Other Surface Observations
Issued by NWS Charleston, SC

Home | Current Version | Previous Version | Text Only | Print | Product List | Glossary On
Versions: 1 2 3 4 5 6 7 8 9 10 11 12 13 14 15 16 17 18 19 20 21 22 23 24 25 26 27 28 29 30 31 32 33 34 35 36 37 38 39 40 41 42 43 44 45 46 47 48 49 50
000
SXUS52 KCHS 271126
OSOCHS

MARINE OBSERVATIONS
NATIONAL WEATHER SERVICE CHARLESTON SC
600 AM EST MON FEB 27 2017

...DOWNTOWN CHARLESTON AND HARBOR...

CITY           SKY/WX    TMP DP  RH WIND       PRES   REMARKS
WATERFRONT PRK   N/A     60  46  59 E14       30.32R

...LAKE MOULTRIE...

CITY           SKY/WX    TMP DP  RH WIND       PRES   REMARKS
PINOPOLIS        N/A     48  43  81 CALM      30.25R

...LAKE AND SUPPLEMENTAL COASTAL OBSERVATIONS...

STATION/POSITION TIME  TEMP    WIND        PRES    WAVE   SWELL
                       AIR SEA DIR/SP/G            HT/PER HT/PER/DIR
                 (UTC) (F)     (DEG/KT/KT) (MB)    (FT/S) (FT/S/D)
FORT PULASKI     1100   61 63  110/ 11/ 15 1025.7
SAPELO ISLAND    1100   59      90/  7     1025.0
WINYAH BAY       1045   55     110/  7     1027.0S
LAKE MURRAY      1120   45      CALM  /  4 1026.1
ACE BASIN NERRS  1030   44        CALM     1026.0S


...C-MAN AND BUOY OBSERVATIONS...

STATION/POSITION TIME  TEMP    WIND        PRES    WAVE   SWELL
                       AIR SEA DIR/SP/G            HT/PER HT/PER/DIR
                 (UTC) (F)     (DEG/KT/KT) (MB)    (FT/S) (FT/S/D)
BUOY 41004       1050   62 69   90/ 12/ 16 1026.7R   3/ 9   2/110/ 9
BUOY 41008       1050   63 62   80/ 14/ 16 1024.8S   3/ 8   2/110/ 8
FOLLY BEACH CMAN 1100   60     110/ 12/ 14 1027.2R
CAPERS NS BUOY   1008   60 60  110/ 12/ 16 1026.4S
FRIPP NS BUOY    1108   61 61   90/ 14/ 17 1025.6F
5E ST. MARYS GA  1100      63                N/A     3/ 9


STATION/POSITION TIME  TEMP    WIND        PRES    WAVE   SWELL
                       AIR SEA DIR/SP/G            HT/PER HT/PER/DIR
                 (UTC) (F)     (DEG/KT/KT) (MB)    (FT/S) (FT/S/D)
FRYING PAN BUOY  1110   61 69   80/  8/ 14 1028.0
BUOY 41025       1050   57 71   40/  6/ 10 1029.4R   3/ 8   3/110/ 8
CAPE LOOKOUT NC  1100   57      60/  6/  7 1028.9R
BUOY 41002       1050   65 70   60/ 12/ 16 1027.4R   4/ 8   3/ 70/ 8
BUOY 41010       NOT AVBL
ST AUGUSTINE FL  1100   67 65  110/ 12/ 14 1024.8R

$$




USA.gov is the U.S. government's official web portal to all federal, state and local government web resources and services.